WetterOnline ( https://www.wetteronline.de )

Wetter aktuell Bad Hersfeld

Aktuelles Wetter: Bad Hersfeld (273m)

6-stündlich | Neueste Meldungen
Ortszeit Temperatur Wetter
Do, 18.08. 20:00 21.4° C wolkig
Do, 18.08. 14:00 20.1° C bedeckt
Do, 18.08. 8:00 16.2° C bedeckt
Do, 18.08. 2:00 16.2° C bewölkt
Mi, 17.08. 20:00 27.1° C leicht bewölkt
Mi, 17.08. 14:00 28.4° C bedeckt
Mi, 17.08. 8:00 17.0° C leicht bewölkt
Mi, 17.08. 2:00 16.1° C leicht bewölkt
Ortszeit Temperatur Wetter
Fr, 19.08. 0:30 18.1° C bewölkt
Fr, 19.08. 0:20 18.1° C bewölkt
Fr, 19.08. 0:10 18.6° C bedeckt
Fr, 19.08. 0:00 18.7° C bewölkt
Do, 18.08. 23:50 18.7° C bewölkt
Do, 18.08. 23:40 18.4° C bedeckt
Do, 18.08. 23:30 18.0° C wolkig
Do, 18.08. 23:00 18.1° C wolkig
Do, 18.08. 22:30 18.8° C wolkig
Do, 18.08. 22:00 20.0° C bedeckt
Do, 18.08. 21:30 19.9° C bedeckt
Ortszeit Relative Feuchte Sichtweite
Do, 18.08. 20:00 72% 20 km
Do, 18.08. 14:00 85% 6 km
Do, 18.08. 8:00 80% 30 km
Do, 18.08. 2:00 79% 45 km
Mi, 17.08. 20:00 39% 60 km
Mi, 17.08. 14:00 38% 50 km
Mi, 17.08. 8:00 72% 30 km
Mi, 17.08. 2:00 80% 40 km
Ortszeit Relative Feuchte Sichtweite
Fr, 19.08. 0:30 85% 14 km
Fr, 19.08. 0:20 85% -
Fr, 19.08. 0:10 83% -
Fr, 19.08. 0:00 82% 16 km
Do, 18.08. 23:50 82% -
Do, 18.08. 23:40 83% -
Do, 18.08. 23:30 85% 13 km
Do, 18.08. 23:00 85% 13 km
Do, 18.08. 22:30 82% 14 km
Do, 18.08. 22:00 76% 17 km
Do, 18.08. 21:30 78% 17 km
Ortszeit Niederschlagsmenge Niederschlagsart
Do, 18.08. 20:00 3 l/m2 in 12 Std. Regen
Do, 18.08. 14:00 3 l/m2 in 6 Std. Regen
Do, 18.08. 8:00 0.0 l/m2 in 12 Std. -
Do, 18.08. 2:00 0.0 l/m2 in 6 Std. -
Mi, 17.08. 20:00 0.1 l/m2 in 12 Std. Regen
Mi, 17.08. 14:00 0.0 l/m2 in 6 Std. -
Mi, 17.08. 8:00 0.0 l/m2 in 12 Std. -
Mi, 17.08. 2:00 0.0 l/m2 in 6 Std. -
Ortszeit Niederschlagsmenge Niederschlagsart
Fr, 19.08. 0:30 0.0 l/m2 in 1 Std. -
Fr, 19.08. 0:20 keine Meldung -
Fr, 19.08. 0:10 keine Meldung -
Fr, 19.08. 0:00 0.0 l/m2 in 1 Std. -
Do, 18.08. 23:50 keine Meldung -
Do, 18.08. 23:40 keine Meldung -
Do, 18.08. 23:30 0.0 l/m2 in 1 Std. -
Do, 18.08. 23:00 0.0 l/m2 in 1 Std. -
Do, 18.08. 22:30 0.0 l/m2 in 1 Std. -
Do, 18.08. 22:00 0.0 l/m2 in 1 Std. -
Do, 18.08. 21:30 0.0 l/m2 in 1 Std. -
Ortszeit Stärke Spitze Richtung
km/h Bft. km/h Grad Sektor
Do, 18.08. 20:00 7 2 18 10° N
Do, 18.08. 14:00 4 1 14 50° NO
Do, 18.08. 8:00 0 0 7 - -
Do, 18.08. 2:00 7 2 14 120° SO
Mi, 17.08. 20:00 11 2 22 160° S
Mi, 17.08. 14:00 9 2 20 250° W
Mi, 17.08. 8:00 2 1 6 360° N
Mi, 17.08. 2:00 0 0 11 - -
Ortszeit Stärke Spitze Richtung
km/h Bft. km/h Grad Sektor
Fr, 19.08. 0:30 4 1 11 360° N
Fr, 19.08. 0:20 4 1 - 360° N
Fr, 19.08. 0:10 4 1 - 40° NO
Fr, 19.08. 0:00 4 1 11 30° NO
Do, 18.08. 23:50 4 1 - 30° NO
Do, 18.08. 23:40 4 1 - 30° NO
Do, 18.08. 23:30 2 1 6 30° NO
Do, 18.08. 23:00 4 1 7 340° N
Do, 18.08. 22:30 2 1 7 350° N
Do, 18.08. 22:00 4 1 11 330° NW
Do, 18.08. 21:30 7 2 11 10° N
Ortszeit Untergrenze Bedeckung Gattung
total tief tief mittel hoch
Do, 18.08. 20:00 1800 m 8/8 2/8 - - -
Do, 18.08. 14:00 1800 m 8/8 8/8 - - -
Do, 18.08. 8:00 4200 m 8/8 8/8 - - -
Do, 18.08. 2:00 4200 m 8/8 5/8 - - -
Mi, 17.08. 20:00 8700 m 8/8 0/8 - - -
Mi, 17.08. 14:00 3300 m 8/8 8/8 - - -
Mi, 17.08. 8:00 7500 m 8/8 0/8 - - -
Mi, 17.08. 2:00 9000 m 3/8 0/8 - - -
Ortszeit Bedeckungsgrad in Achtel und Wolkenuntergrenze
Fr, 19.08. 0:30 7(1500m) 8(3900m) 8(9000m)
Fr, 19.08. 0:20 7(1500m) 8(3900m) 8(9000m)
Fr, 19.08. 0:10 8
Fr, 19.08. 0:00 5(4200m) 8(8700m) 8(10500m)
Do, 18.08. 23:50 5(4200m) 8(8700m) 8(10500m)
Do, 18.08. 23:40 8
Do, 18.08. 23:30 8(9000m) 8(10500m) 8(12000m)
Do, 18.08. 23:00 1(3900m) 8(9000m) 8(10500m)
Do, 18.08. 22:30 2(2400m) 8(9000m) 8(10500m)
Do, 18.08. 22:00 3(1800m) 8(2400m)
Do, 18.08. 21:30 7(1800m) 8(2100m)
Ortszeit Luftdruck NN (hPa) Tendenz (hPa in 3 Std.)
Do, 18.08. 20:00 1011 - 0,1
Do, 18.08. 14:00 1013 - 0,8
Do, 18.08. 8:00 1013 + 0,2
Do, 18.08. 2:00 1012 + 0,7
Mi, 17.08. 20:00 1010 - 0,9
Mi, 17.08. 14:00 1011 0,0
Mi, 17.08. 8:00 1012 + 0,3
Mi, 17.08. 2:00 1012 + 0,1
Ortszeit Luftdruck NN (hPa) Tendenz (hPa in 3 Std.)
Fr, 19.08. 0:30 1012 + 0,4
Fr, 19.08. 0:20 1012 keine Meldung
Fr, 19.08. 0:10 1012 keine Meldung
Fr, 19.08. 0:00 1012 + 0,3
Do, 18.08. 23:50 1012 keine Meldung
Do, 18.08. 23:40 1012 keine Meldung
Do, 18.08. 23:30 1012 - 0,3
Do, 18.08. 23:00 1012 - 0,1
Do, 18.08. 22:30 1012 + 0,4
Do, 18.08. 22:00 1012 + 0,5
Do, 18.08. 21:30 1012 + 0,2
Ortszeit Schneehöhe (cm)
Do, 18.08. 20:00 0
Do, 18.08. 14:00 0
Do, 18.08. 8:00 0
Do, 18.08. 2:00 0
Mi, 17.08. 20:00 0
Mi, 17.08. 14:00 0
Mi, 17.08. 8:00 0
Mi, 17.08. 2:00 0
Ortszeit Schneehöhe (cm)
Fr, 19.08. 0:30 0
Fr, 19.08. 0:20 0
Fr, 19.08. 0:10 0
Fr, 19.08. 0:00 0
Do, 18.08. 23:50 0
Do, 18.08. 23:40 0
Do, 18.08. 23:30 0
Do, 18.08. 23:00 0
Do, 18.08. 22:30 0
Do, 18.08. 22:00 0
Do, 18.08. 21:30 0
Link zu dieser Seite / Seite empfehlen

Das Wetter in ...